Flag for Norway Weather past 2 weeks in Eidsvoll, Norway

Now
1 °F

Scattered clouds.


Feels Like: 1 °F
Forecast: 7 / 12 °F
Wind: No wind

Location: Oslo Gardermoen Airport

Current Time: Dec 26, 2014 at 1:58:40 PM

Latest Report: Dec 26, 2014 at 1:20 PM


Visibility: N/A

Pressure: 30.04 "Hg

Humidity: 78%

Dew point: -4 °F

Location of EidsvollLocation

Historic Weather in Eidsvoll — Graph

°F

Eidsvoll temperature yesterday

Maximum temperature yesterday: 16 °F (at 12:20 AM)
Minimum temperature yesterday: -4 °F (at 11:50 PM)
Average temperature yesterday: 6 °F

Past Weeks' High & Low Weather Summary

 TemperatureHumidityPressure
High43 °F (Dec 14, 11:20 PM)100% (Dec 13, 12:20 AM)30.18 "Hg (Dec 13, 12:20 AM)
Low-8 °F (Dec 26, 6:20 AM)51% (Dec 15, 7:50 PM)28.97 "Hg (Dec 12, 6:20 PM)
Average24 °F89%29.35 "Hg
* Reported Dec 11 12:20 PM — Dec 26 12:50 PM, Eidsvoll, Weather by CustomWeather, © 2014

Note: Actual official high and low records may vary slightly from our data, if they occured in-between our weather recording intervals... More about our weather records

Advertising

Eidsvoll weather history for previous 24 hours

 ConditionsComfort  
Time TempWeatherWind HumidityBarometerVisibility
12:50 PM
Dec 26
0 °FBroken clouds.No wind84%30.07 "HgN/A
12:20 PM-2 °FFog.No wind84%30.07 "HgN/A
11:50 AM-2 °FSnow. Fog.No wind77%30.07 "HgN/A
11:20 AM-4 °FSnow. Fog.1 mph77%30.09 "HgN/A
10:50 AM-4 °FFrigid.No wind77%30.09 "HgN/A
10:20 AM-6 °FSnow. Fog.No wind84%30.09 "HgN/A
9:50 AM-8 °FFog.1 mph84%30.09 "HgN/A
9:20 AM-8 °FFog.No wind84%30.09 "HgN/A
8:50 AM-8 °FSnow. Fog.No wind84%30.09 "HgN/A
8:20 AM-8 °FSnow. Light fog.No wind84%30.09 "HgN/A
7:50 AM-6 °FSnow. Light fog.No wind77%30.09 "HgN/A
7:20 AM-8 °FSnow. Passing clouds.No wind77%30.09 "HgN/A
6:50 AM-8 °FPassing clouds.No wind84%30.09 "HgN/A
6:20 AM-8 °FLight fog.No wind84%30.12 "HgN/A
5:50 AM-6 °FLight fog.No wind77%30.12 "HgN/A
5:20 AM-6 °FPassing clouds.No wind77%30.15 "Hg6 mi
4:50 AM-6 °FPassing clouds.No wind77%30.15 "Hg5 mi
3:50 AM-6 °FFrigid.No wind84%30.15 "Hg1 mi
3:20 AM-6 °FIce fog.No wind84%30.15 "Hg3 mi
2:50 AM-6 °FIce fog.No wind84%30.15 "Hg1 mi
2:20 AM-4 °FIce fog.No wind84%30.15 "Hg1 mi
1:50 AM-6 °FIce fog.No wind84%30.15 "Hg1 mi
1:20 AM-4 °FFrigid.No wind77%30.15 "Hg1 mi
12:50 AM-4 °FSleet. Overcast.No wind77%30.15 "Hg3 mi
12:20 AM-4 °FSleet. Overcast.No wind84%30.15 "Hg1 mi
11:50 PM
Dec 25
-4 °FIce fog.No wind84%30.18 "Hg1 mi
11:20 PM-2 °FFrigid.No wind77%30.18 "Hg1 mi
10:50 PM-2 °FFrigid.No wind84%30.18 "Hg1 mi
10:20 PM0 °FIce fog.2 mph92%30.18 "Hg0 mi
9:50 PM0 °FSleet. Overcast.No wind84%30.18 "Hg1 mi
9:20 PM-2 °FFrigid.No wind84%30.18 "Hg1 mi
8:50 PM0 °FSleet. Overcast.2 mph92%30.18 "Hg2 mi
8:20 PM0 °FFrigid.No wind84%30.18 "Hg1 mi
7:50 PM-2 °FFrigid.No wind84%30.15 "Hg1 mi
7:20 PM-2 °FSnow. Overcast.3 mph84%30.15 "Hg3 mi
6:50 PM0 °FSnow. Overcast.No wind84%30.15 "Hg5 mi
6:20 PM1 °FSnow. Overcast.No wind85%30.15 "Hg4 mi
5:50 PM0 °FFog.1 mph84%30.15 "HgN/A
5:20 PM0 °FPassing clouds.No wind84%30.15 "HgN/A
4:50 PM0 °FPassing clouds.No wind84%30.15 "HgN/A
4:20 PM1 °FPassing clouds.2 mph85%30.15 "HgN/A
3:50 PM3 °FPassing clouds.No wind85%30.12 "HgN/A
3:20 PM7 °FClear.No wind78%30.12 "Hg10 mi
2:50 PM9 °FSunny.No wind85%30.12 "Hg10 mi
2:20 PM9 °FSunny.No wind78%30.12 "Hg10 mi
1:50 PM10 °FSunny.2 mph85%30.12 "Hg10 mi
1:20 PM12 °FSunny.3 mph85%30.09 "Hg10 mi
Weather by CustomWeather, © 2014

See weather overviewHow to use our weather pages